Location: Unspecified
(0.0000°N, 0.0000°E)
Time: 23:02:28
(UTC+00:00)

S-56A Canister/Altair - Pass Details

Date: 03 October 2020
Orbit: 633 x 2499 km, 38.9° (Epoch: 28 October)

Event Time Altitude Azimuth Distance (km) Brightness Sun altitude
Rises 10:14:32 0° 238° (WSW) 4,461 11.3 66.1°
Reaches altitude 10° 10:17:10 10° 242° (WSW) 3,705 10.9 66.7°
Maximum altitude 10:27:07 63° 320° (NW) 2,180 10.6 69.1°
Drops below altitude 10° 10:41:10 10° 39° (NE) 5,055 11.9 72.6°
Sets 10:45:27 0° 42° (NE) 6,145 12.2 73.6°
